IRIDIUM 56 [+] (25170 NORAD) Tracking and Keplerian Element Data

This shows tracking and keplerian element data for the satellite.

Feedback or suggestion? Click here.




ElementValue
Catalog25170
NameIRIDIUM 56 [+]
Epoch Orbit6835
Epoch Day198.57383094
Epoch Year2018
RAAN185.2565
Inclination86.3978
Eccentricity0.000235
Argument of Perigee87.371
Mean Anonmoly272.7754
Mean Motion14.34210694
Decay Rate6E-08
L11 25170U 98010B 18198.57383094 .00000006 00000-0 -50085-5 0 9999
L22 25170 86.3978 185.2565 0002350 87.3710 272.7754 14.34210694 68356

Live tracking and technical data element details for IRIDIUM 56 [+] (NORAD 25170). IRIDIUM 56 [+] can be tracked NOW for your location showing map with azimuth and elevation plus other details from your city location.

Track the satellite on the map from your city or location and see movement details for azimuth, elevation, latitude, longitude, range, height, and movement on the map or in text.







IsCatalogInMostPopularTable: catalog: 25170, numindb: 30
Update: records affected: 1



GetName: 25170 IRIDIUM 56 [+]

Hit Count: updated at: Fri, 20 Jul 2018 07:05:25 GMT